Vertical_Velocity
1 1 1 0 -1 -2 -3 -5 -5 -5 -6 -5 -5 -4 -4 -3 -2 -1 -1 0 -0 -0 -0 -1 -2 -3 -4 -5 -5 -5 -4 -4 -3 -4 -5 -5 -5 -4 -3 -1 -0 0 -0 -1 -2 -3 -3 -3 -3 -2 -0 0 1 2 3 3 3 3 3 2 2 1 1 0 -0 -0 1 5 5 2 -0 -0 -0 -0 -1 -2 -3 -3 -3 -2 -1 0 2 2 2 2 1 0 0 -0 -0 -1 -2 -1 3 0 1 1 0 -1 -1 -1 -1
1 1 2 2 2 1 0 -1 -2 -4 -5 -5 -5 -5 -4 -4 -3 -2 -1 -1 -1 -1 -1 -1 -1 -2 -3 -3 -4 -5 -5 -4 -4 -5 -6 -5 -5 -4 -3 -2 -1 -1 -1 -1 -2 -2 -2 -2 -2 -2 -1 0 1 1 2 2 1 1 1 1 1 1 2 1 1 1 0 1 1 1 1 0 0 0 -0 -2 -2 -1 2 2 0 -0 1 2 2 2 2 1 0 -0 -0 -0 -1 -2 -2 -2 1 4 4 0 -1 -1 -1
-0 -0 0 1 1 1 1 1 0 -1 -3 -4 -5 -5 -5 -4 -3 -3 -3 -3 -3 -3 -2 -2 -1 -1 -1 -2 -2 -3 -4 -5 -6 -6 -7 -6 -4 -3 -2 -2 -2 -2 -2 -1 -2 -2 -2 -2 -2 -2 -1 0 1 1 1 -0 -1 -1 -1 -1 0 1 1 1 1 1 0 1 1 1 1 0 1 1 1 -1 -2 1 10 8 6 4 2 1 2 2 3 2 1 -0 -0 0 0 -0 -2 -2 -0 3 5 1 -1 -1 -1
-2 -2 -2 -2 -1 -0 0 0 0 0 0 -1 -2 -3 -4 -4 -4 -4 -4 -4 -4 -4 -3 -2 -2 -1 -1 -1 -1 -2 -3 -4 -6 -8 -8 -6 -4 -3 -2 -2 -3 -3 -2 -2 -2 -3 -3 -2 -2 -1 -1 0 1 1 1 0 1 1 1 1 1 1 0 1 1 2 2 1 0 0 1 -0 -0 1 4 -0 -2 1 11 7 5 5 5 4 4 3 3 2 1 0 -0 0 0 0 -1 -1 -1 0 2 -0 -1 -1 -1
-4 -4 -4 -4 -3 -2 -1 -1 -1 -1 0 -0 -0 -1 -2 -3 -3 -4 -4 -4 -4 -4 -4 -4 -3 -2 -1 -1 -1 -1 -1 -3 -5 -7 -8 -6 -4 -3 -3 -3 -3 -3 -3 -3 -3 -3 -3 -3 -2 -1 -0 0 0 0 0 1 3 3 3 3 2 2 1 1 2 3 4 2 1 0 -1 -1 -1 1 5 3 2 4 11 6 2 1 5 7 8 6 3 2 2 1 -0 0 0 0 0 -0 -1 -1 -0 -1 -1 -1 -1
-4 -4 -4 -5 -4 -4 -3 -2 -2 -1 -1 -1 -0 -0 -1 -1 -2 -3 -3 -3 -4 -4 -4 -4 -4 -3 -2 -2 -1 -1 -1 -3 -5 -6 -6 -4 -4 -4 -4 -4 -3 -3 -4 -4 -4 -3 -2 -2 -2 -1 -0 -0 -0 -0 -0 1 1 2 2 2 2 2 3 3 3 4 4 2 0 -1 -1 -1 -2 -1 2 5 7 9 13 7 3 1 2 3 4 5 6 3 2 1 -0 1 1 1 0 -0 -1 -1 -1 -1 -1 -1 -1
-3 -3 -3 -4 -4 -4 -4 -3 -2 -2 -2 -2 -1 -0 -0 -1 -1 -2 -2 -2 -3 -3 -3 -3 -4 -4 -3 -3 -2 -2 -2 -3 -4 -4 -3 -2 -2 -3 -4 -4 -4 -4 -4 -5 -4 -3 -2 -2 -2 -1 -0 -0 -0 -1 -1 -0 0 0 0 0 2 3 4 3 3 2 2 3 3 2 1 0 -1 -0 1 5 8 11 14 8 4 2 1 1 1 2 8 6 3 1 -0 -1 0 2 1 0 2 4 1 -1 -2 -1 -1
-3 -3 -3 -3 -3 -3 -3 -4 -3 -3 -3 -2 -2 -1 -1 -1 -1 -2 -2 -2 -2 -2 -2 -3 -3 -3 -4 -4 -4 -4 -4 -5 -4 -3 -1 -0 -1 -2 -4 -5 -5 -5 -5 -5 -5 -4 -3 -3 -2 -1 -1 -1 -0 -0 -1 -1 -1 -0 -1 1 3 4 5 3 2 1 1 1 4 5 3 -1 -1 2 7 8 8 8 9 8 5 2 -1 -1 -0 1 5 7 8 6 2 3 5 7 9 3 5 8 7 3 -0 -2 -1
-2 -2 -3 -2 -2 -2 -2 -3 -3 -4 -4 -3 -3 -2 -1 -1 -1 -1 -1 -1 -1 -2 -2 -2 -2 -2 -3 -4 -4 -5 -6 -6 -4 -2 -0 -0 -0 -1 -2 -3 -5 -6 -6 -5 -4 -4 -3 -4 -3 -2 -1 -1 -1 -0 -0 -1 -1 -0 -0 1 2 4 5 4 3 2 2 1 1 3 4 1 -1 -1 3 5 6 6 8 9 8 4 -0 -1 -1 -1 -0 2 7 11 11 12 11 11 9 3 1 3 4 5 4 2 -1
-0 -1 -1 -2 -2 -1 -1 -2 -2 -3 -4 -4 -3 -3 -2 -2 -1 -1 -1 -1 -1 -1 -1 -1 -1 -1 -2 -3 -4 -5 -6 -6 -5 -4 -2 -1 -1 -0 -1 -2 -4 -5 -7 -6 -4 -3 -3 -4 -4 -3 -2 -2 -1 -0 -0 -1 -1 -1 -1 1 2 3 3 5 5 3 1 1 1 1 2 4 3 1 -2 0 4 6 8 11 11 9 4 1 -1 -1 -2 -2 3 7 10 11 10 6 4 1 -0 -0 0 1 4 6 5
1 1 1 0 -0 -1 -1 -1 -1 -2 -2 -3 -3 -3 -3 -3 -2 -2 -2 -1 -1 -1 -1 -0 -0 -1 -1 -2 -3 -3 -4 -5 -5 -5 -5 -3 -2 -1 -0 -2 -3 -4 -5 -6 -5 -3 -3 -3 -4 -4 -3 -2 -1 -1 -1 -1 -1 -0 -1 1 2 2 2 4 4 4 3 2 2 2 1 1 2 3 -1 -0 4 8 8 9 11 12 9 5 2 -0 -1 -1 0 3 6 8 7 6 3 1 -0 0 1 1 2 3 5
2 2 2 2 1 1 1 1 0 0 -0 -1 -2 -2 -3 -3 -3 -2 -2 -2 -2 -2 -1 -1 -1 -1 -1 -2 -2 -2 -3 -3 -4 -5 -5 -4 -3 -1 -0 -1 -2 -3 -4 -4 -4 -4 -3 -3 -3 -3 -4 -3 -2 -1 -1 -1 -1 -0 0 1 1 1 1 0 2 5 6 4 4 3 3 1 -0 0 0 0 4 8 7 8 8 9 10 9 5 2 0 -1 -1 -0 3 4 6 8 7 2 1 0 1 1 1 2 1
1 2 1 1 1 1 1 1 1 1 1 1 -0 -1 -2 -2 -2 -2 -2 -2 -3 -3 -2 -2 -2 -2 -1 -1 -2 -2 -2 -2 -3 -4 -5 -5 -4 -3 -1 -1 -1 -1 -2 -2 -3 -4 -4 -4 -3 -3 -3 -3 -3 -2 -1 -1 -1 -0 1 2 1 1 0 -1 0 2 4 3 2 2 2 2 1 -1 -1 0 1 2 3 8 8 7 8 8 7 5 3 1 -1 -1 0 3 4 6 7 5 4 3 2 1 1 1 2
1 1 0 0 0 0 0 0 1 1 1 1 1 -0 -1 -1 -1 -1 -1 -2 -2 -2 -2 -2 -3 -3 -2 -2 -2 -2 -1 -1 -1 -2 -3 -4 -4 -4 -3 -2 -1 -1 -0 -1 -2 -3 -4 -4 -4 -3 -2 -3 -4 -3 -1 -1 -1 -0 1 2 1 0 -0 -0 -1 -1 1 2 1 1 1 2 2 1 -0 1 2 2 1 5 8 9 8 7 6 6 5 2 0 -1 -2 -1 1 1 0 2 6 8 6 2 1 0 1
-0 -1 -1 -1 -1 -1 -2 -1 -1 -1 -0 0 0 0 -0 -1 -0 -0 -0 -1 -1 -2 -2 -2 -2 -3 -3 -2 -2 -2 -1 0 -0 -1 -2 -2 -3 -4 -4 -3 -2 -1 -0 -0 -1 -2 -3 -4 -4 -3 -3 -3 -4 -4 -3 -2 -1 0 1 1 1 0 0 1 0 -1 -1 1 1 0 -0 1 2 3 2 2 3 3 1 1 5 9 10 7 4 4 5 3 2 0 -2 -2 -1 -1 -2 -1 4 9 10 6 2 -0 -0
-2 -2 -2 -2 -2 -2 -3 -3 -2 -2 -2 -1 -1 -1 -1 -1 -0 0 0 0 -1 -1 -1 -2 -2 -3 -3 -3 -4 -3 -2 -0 0 0 -0 -1 -2 -3 -4 -4 -3 -3 -1 -0 -0 -1 -1 -2 -3 -3 -3 -2 -3 -4 -4 -3 -2 -0 1 1 1 1 1 1 0 -1 -4 -1 -0 -0 -1 0 2 3 3 3 2 1 -1 -2 1 6 11 9 6 4 4 4 3 1 0 -0 -0 -0 -1 1 4 7 9 8 5 1 0
-4 -3 -3 -2 -2 -2 -3 -3 -3 -3 -3 -2 -2 -2 -2 -1 -1 -0 0 1 0 -0 -1 -2 -2 -3 -3 -4 -4 -5 -4 -2 -2 -1 -0 -0 -1 -2 -3 -3 -4 -3 -2 -1 -1 -1 -1 -2 -3 -3 -3 -2 -2 -2 -4 -4 -3 -1 1 0 0 1 1 0 -0 -1 -2 -2 -0 1 0 0 1 2 3 3 2 2 0 -1 -1 2 8 10 10 8 7 5 3 3 3 4 2 0 -2 3 6 6 4 7 7 5 3
-4 -3 -2 -2 -2 -2 -2 -2 -2 -2 -2 -3 -3 -2 -2 -2 -2 -1 -1 0 1 1 -0 -1 -2 -2 -2 -3 -4 -5 -5 -4 -4 -4 -3 -2 -1 -1 -2 -3 -3 -4 -3 -2 -1 -1 -1 -1 -2 -3 -4 -3 -2 -2 -3 -4 -3 -1 -0 -0 -0 0 0 -0 -1 -0 -0 -2 -1 0 1 -0 0 1 2 2 3 2 2 1 -0 -1 1 7 10 10 9 8 5 3 2 5 5 3 -1 0 4 6 5 8 8 7 6
-4 -3 -1 -1 -1 -1 -1 -1 -1 -1 -1 -2 -2 -2 -2 -1 -2 -2 -2 -0 1 1 1 -0 -1 -1 -1 -2 -3 -4 -4 -5 -5 -5 -5 -4 -3 -2 -2 -3 -3 -4 -4 -3 -3 -2 -1 -0 -1 -2 -3 -3 -3 -2 -2 -3 -2 -1 -1 -1 -0 -0 -0 -1 -0 0 -0 -2 -3 -3 -0 0 1 1 1 2 2 3 3 2 0 -1 -1 2 5 7 8 9 7 4 1 3 6 6 2 -1 1 6 8 9 7 6 5
-5 -4 -3 -2 -2 -2 -1 -1 -1 -0 -0 -2 -2 -3 -2 -1 -1 -2 -2 -1 -0 1 1 -0 -1 -1 -0 -1 -2 -3 -3 -4 -5 -5 -5 -5 -4 -3 -3 -3 -3 -4 -4 -4 -4 -3 -2 -1 -1 -1 -2 -3 -3 -3 -2 -2 -2 -1 -1 -1 -1 -1 -1 -0 0 1 0 -1 -3 -4 -3 1 2 1 0 1 1 2 2 2 1 1 0 -0 0 2 5 7 8 7 4 2 4 6 5 -0 -1 2 6 9 8 5 2
-6 -6 -6 -5 -5 -4 -3 -3 -3 -2 -1 -2 -3 -4 -3 -3 -3 -2 -3 -2 -2 -1 -1 -1 -2 -2 -2 -1 -1 -2 -2 -4 -5 -5 -5 -5 -4 -4 -3 -3 -3 -4 -3 -4 -5 -5 -3 -2 -1 -1 -1 -2 -3 -4 -3 -2 -1 -1 -1 -1 -1 -1 -1 -1 -0 0 0 0 -1 -2 -4 -1 0 1 0 0 1 1 2 2 2 1 -1 -1 -1 0 2 5 6 7 6 3 2 3 4 1 -2 -2 2 7 9 8 4
-6 -6 -6 -7 -7 -6 -6 -5 -5 -5 -3 -4 -4 -4 -3 -5 -5 -4 -3 -4 -4 -3 -2 -3 -3 -3 -4 -3 -3 -2 -1 -4 -5 -6 -5 -5 -5 -4 -3 -3 -3 -3 -3 -4 -4 -5 -4 -3 -2 -1 -1 -2 -3 -4 -4 -2 -1 -0 -1 -1 -1 -1 -1 -1 -1 -0 0 0 -0 -2 -3 -4 -3 -1 1 0 1 1 2 2 1 0 -2 -1 -0 0 1 3 5 7 7 6 3 1 1 1 -1 -2 -1 4 7 9 10
-6 -5 -5 -6 -6 -6 -6 -6 -6 -5 -5 -5 -5 -4 -3 -5 -5 -5 -4 -5 -5 -4 -3 -4 -4 -4 -5 -5 -4 -3 -2 -3 -4 -5 -6 -6 -5 -5 -4 -3 -3 -3 -3 -3 -4 -4 -5 -5 -4 -2 -1 -1 -2 -4 -5 -3 -2 -0 -0 -0 -1 -1 -1 -1 -1 -1 -1 -1 -1 -1 -1 -3 -4 -3 -0 0 0 1 1 2 2 1 -0 -1 -1 -0 0 1 4 6 6 6 4 2 1 1 1 1 -2 -0 2 6 11
-6 -5 -5 -6 -6 -5 -5 -6 -6 -5 -5 -5 -5 -4 -3 -4 -5 -5 -4 -4 -5 -4 -3 -3 -3 -3 -4 -4 -4 -3 -3 -2 -2 -3 -5 -6 -6 -5 -4 -4 -3 -3 -3 -2 -3 -4 -4 -5 -4 -3 -1 -1 -2 -3 -5 -4 -3 -1 -0 -0 -0 -0 -1 -1 -1 -1 -1 -1 -1 0 0 -2 -4 -4 -3 -2 -0 0 2 3 3 3 2 0 -1 -1 -1 0 2 4 5 6 5 4 2 2 3 4 2 -1 -2 2 10
-5 -5 -5 -6 -6 -5 -5 -6 -6 -5 -5 -5 -6 -5 -3 -4 -5 -5 -3 -4 -4 -5 -3 -3 -3 -3 -4 -3 -3 -2 -3 -2 -1 -0 -2 -4 -5 -5 -4 -4 -3 -3 -3 -2 -2 -3 -4 -4 -5 -4 -3 -1 -2 -3 -4 -4 -3 -2 -1 -0 -0 -0 -0 -0 -1 -1 -1 -1 -1 -0 -1 -1 -2 -3 -4 -2 -1 0 1 2 3 3 3 2 1 -1 -1 -0 0 2 4 6 6 5 3 2 3 4 5 2 -1 -1 6
-4 -4 -4 -5 -6 -5 -4 -5 -6 -5 -4 -5 -5 -5 -4 -3 -4 -5 -4 -3 -4 -4 -4 -3 -2 -2 -3 -3 -2 -2 -3 -2 -1 -0 -1 -2 -3 -4 -4 -4 -3 -3 -3 -3 -3 -3 -3 -4 -4 -4 -3 -2 -2 -3 -4 -4 -3 -3 -2 -1 -0 -0 -0 -0 -1 -1 -1 -1 -1 -1 -1 -1 -1 -1 -2 -3 -2 -1 0 1 2 2 3 2 2 1 0 0 0 1 3 6 7 6 6 4 2 2 5 4 2 1 4
-4 -4 -3 -4 -4 -5 -4 -5 -5 -5 -4 -4 -4 -4 -5 -4 -4 -4 -4 -3 -4 -4 -4 -3 -3 -3 -3 -3 -3 -2 -2 -3 -2 -1 -2 -2 -2 -3 -4 -4 -3 -3 -3 -2 -2 -3 -3 -3 -3 -4 -3 -3 -3 -4 -4 -4 -4 -3 -2 -1 -0 0 0 -0 -0 -1 -1 -1 -1 -1 -1 -0 -0 -1 -2 -3 -4 -3 -0 1 1 2 2 2 2 1 1 1 1 1 2 4 5 6 7 5 3 2 3 3 3 3 4
-3 -3 -2 -2 -3 -4 -3 -3 -4 -5 -4 -4 -3 -3 -4 -5 -5 -4 -4 -4 -4 -4 -5 -4 -4 -4 -4 -4 -3 -3 -2 -3 -2 -2 -2 -3 -2 -2 -3 -4 -3 -3 -3 -2 -2 -2 -2 -2 -2 -3 -2 -2 -3 -4 -5 -5 -4 -3 -2 -1 -1 0 0 0 -0 -0 -0 -1 -1 -1 -1 -0 -0 -1 -1 -2 -3 -3 -1 1 2 2 2 1 1 1 1 1 1 1 1 1 3 6 7 6 4 2 -0 1 3 4 4
-2 -3 -2 -1 -1 -2 -2 -2 -2 -3 -4 -4 -4 -3 -2 -4 -4 -4 -5 -4 -3 -3 -4 -4 -4 -4 -4 -4 -4 -4 -3 -4 -3 -2 -1 -2 -2 -2 -3 -3 -3 -3 -3 -3 -2 -2 -2 -2 -2 -1 -2 -1 -2 -4 -6 -6 -5 -3 -3 -2 -1 -0 0 0 -0 -0 -0 -1 -1 -1 -1 -1 -1 -1 -1 -0 -1 -3 -2 0 1 1 1 0 -0 -0 0 0 0 -0 -1 -0 1 4 7 7 6 4 1 1 3 5 5
-2 -2 -3 -1 -0 -1 -2 -1 -1 -2 -3 -3 -3 -3 -2 -3 -3 -4 -5 -5 -4 -3 -3 -4 -4 -4 -4 -3 -4 -4 -3 -3 -4 -3 -1 -2 -2 -2 -2 -3 -3 -3 -3 -3 -3 -3 -3 -2 -1 -1 -1 -1 -2 -3 -5 -6 -5 -4 -3 -3 -2 -1 0 0 0 -0 -0 -1 -1 -1 -1 -1 -1 -1 -0 -1 -1 -2 -3 -3 -2 -1 -1 -1 -0 0 1 1 1 0 -1 -1 -1 1 5 6 7 6 5 5 5 6 5
-3 -2 -2 -2 -1 -0 -1 -1 0 -0 -2 -2 -2 -2 -2 -3 -3 -3 -3 -5 -4 -4 -4 -4 -4 -4 -4 -4 -3 -3 -3 -3 -4 -3 -3 -3 -2 -1 -2 -3 -3 -3 -3 -3 -3 -3 -3 -2 -1 -1 -0 -1 -2 -3 -4 -6 -6 -5 -3 -3 -2 -2 -1 0 0 0 -0 -1 -1 -1 -1 -1 -1 -1 -1 -1 -0 -1 -2 -3 -2 -1 -0 -0 0 0 1 1 0 0 0 0 0 1 2 4 5 5 4 5 5 6 6
-2 -2 -2 -2 -2 -1 -1 -1 -0 0 -1 -1 -1 -1 -1 -2 -2 -2 -3 -4 -4 -4 -4 -4 -4 -4 -5 -4 -4 -3 -3 -3 -3 -4 -3 -3 -2 -2 -1 -2 -3 -3 -3 -3 -2 -2 -3 -3 -2 -1 0 -0 -1 -3 -4 -6 -6 -6 -4 -3 -3 -2 -1 -0 0 0 -0 -0 -1 -1 -1 -1 -2 -2 -1 -1 0 1 1 -0 -1 -1 1 -0 -1 -1 -0 -0 0 0 0 0 0 -0 -1 1 2 2 3 4 4 5 5
-2 -2 -2 -2 -2 -1 -1 -1 -1 -0 -1 -1 -1 -1 -1 -1 -1 -2 -3 -3 -3 -2 -3 -3 -3 -3 -3 -4 -3 -3 -3 -2 -3 -4 -4 -3 -3 -2 -2 -3 -3 -2 -2 -3 -2 -2 -2 -3 -2 -1 0 0 -0 -1 -4 -5 -6 -6 -5 -4 -3 -3 -2 -1 -0 0 0 0 -0 -0 -0 -1 -1 -1 -1 -1 -0 -0 -0 -1 -2 -1 0 -0 -0 -1 -1 -0 0 1 0 -0 -1 -1 -1 -1 -1 -1 1 3 3 4 4
-3 -3 -2 -1 -1 -1 -1 -1 -1 -1 -1 -1 -0 -1 -1 -1 -1 -1 -2 -2 -2 -2 -2 -2 -2 -2 -2 -2 -3 -3 -2 -2 -2 -3 -4 -4 -3 -2 -2 -3 -3 -3 -3 -2 -1 -1 -2 -3 -2 -1 -0 0 0 -1 -2 -4 -5 -6 -6 -5 -4 -4 -3 -2 -0 0 1 1 0 0 0 -0 -1 -1 -1 -1 -2 -2 -3 -3 -3 -3 -3 -1 -1 -1 -1 -0 0 1 0 0 0 0 -0 -1 -2 -1 -0 1 3 3 3
-3 -3 -2 -2 -1 -1 -1 -1 -1 -1 -1 -1 -1 -1 -1 -1 -2 -2 -1 -2 -2 -2 -1 -1 -1 -1 -1 -1 -2 -2 -2 -2 -2 -2 -3 -3 -3 -2 -2 -2 -3 -3 -4 -2 -1 -1 -2 -2 -2 -1 -1 -0 -0 -0 -1 -3 -4 -5 -6 -5 -4 -4 -4 -2 -1 1 1 1 1 0 0 -0 -1 -1 -2 -3 -3 -3 -3 -3 -3 -3 -4 -3 -2 -2 -1 -0 1 1 1 1 1 1 1 -0 -1 -2 -1 0 2 2 3
-2 -3 -3 -2 -2 -2 -1 -1 -1 -1 -1 -1 -1 -1 -1 -2 -2 -2 -2 -2 -3 -3 -3 -2 -2 -2 -2 -2 -2 -1 -2 -2 -1 -1 -2 -3 -3 -2 -1 -2 -2 -3 -4 -3 -2 -2 -2 -2 -1 -1 -1 -1 -1 -1 -1 -1 -2 -4 -5 -5 -5 -4 -4 -3 -2 0 1 1 1 0 -0 -1 -1 -1 -2 -2 -3 -3 -3 -2 -1 -1 -2 -2 -2 -2 -1 -0 1 1 1 0 0 1 1 0 -1 -1 -1 -1 0 2 2
-3 -2 -3 -2 -2 -2 -2 -1 -1 -2 -1 -1 -1 -2 -2 -2 -2 -2 -2 -2 -3 -3 -3 -3 -2 -2 -2 -2 -2 -2 -2 -2 -2 -2 -3 -3 -2 -2 -1 -2 -3 -3 -3 -2 -3 -3 -3 -1 -1 -0 -1 -1 -1 -1 -1 -1 -2 -2 -4 -5 -5 -4 -4 -4 -3 -1 0 1 1 0 -0 -1 -1 -1 -1 -1 -1 -1 -2 -1 -1 -0 0 -1 -2 -3 -2 -1 -0 0 1 0 0 0 1 -0 -1 -2 -2 -2 -0 1 2
-3 -2 -3 -2 -2 -2 -2 -2 -2 -2 -2 -2 -1 -2 -2 -2 -2 -2 -2 -2 -2 -3 -3 -3 -3 -2 -2 -2 -2 -2 -1 -1 -2 -2 -3 -3 -2 -2 -2 -2 -3 -3 -2 -2 -3 -4 -4 -2 -1 -1 -0 -1 -1 -2 -1 -1 -1 -1 -3 -4 -4 -3 -3 -3 -3 -3 -2 -1 -0 -0 -0 -0 -0 -0 -0 -0 -1 -1 -1 -2 -1 -1 -1 -1 -2 -3 -3 -2 -1 -0 0 -0 -0 -0 -1 -1 -1 -2 -2 -1 -0 1 2
-3 -3 -2 -3 -2 -2 -2 -2 -2 -2 -2 -2 -2 -1 -2 -2 -2 -2 -2 -2 -2 -2 -2 -3 -3 -3 -2 -2 -2 -2 -1 -1 -2 -2 -3 -3 -3 -2 -2 -2 -2 -2 -2 -2 -3 -3 -3 -2 -2 -1 -0 -1 -1 -1 -1 -1 -0 -0 -2 -3 -3 -3 -2 -2 -2 -2 -3 -3 -2 -1 -0 0 0 0 0 -0 -1 -1 -1 -2 -2 -2 -2 -2 -2 -3 -3 -3 -1 -1 -0 -1 -1 -1 -1 -1 -1 -1 -1 -1 0 1 2
-2 -2 -2 -2 -2 -2 -1 -2 -2 -2 -2 -2 -2 -2 -1 -1 -2 -2 -2 -2 -2 -1 -0 -2 -3 -4 -3 -2 -2 -2 -2 -1 -1 -2 -2 -2 -2 -2 -3 -2 -2 -2 -2 -2 -3 -3 -3 -3 -3 -2 -1 -1 -1 -1 -1 -0 -0 -0 -1 -2 -2 -2 -1 -1 -1 -2 -3 -4 -4 -3 -2 -0 0 0 -0 -0 -1 -1 -1 -2 -2 -2 -2 -2 -2 -2 -3 -3 -2 -1 -1 -1 -1 -1 -1 -0 0 0 -0 -1 -0 1 3
-2 -2 -2 -2 -2 -2 -2 -2 -2 -2 -3 -3 -3 -2 -2 -1 -1 -2 -2 -2 -2 -2 -0 0 -1 -3 -4 -3 -3 -3 -4 -2 -1 -1 -2 -1 -1 -2 -3 -2 -2 -1 -2 -2 -3 -4 -5 -5 -4 -2 -1 -1 -1 -1 -1 -0 -0 -1 -1 -1 -1 -1 -1 -1 -1 -1 -3 -4 -4 -4 -3 -1 -1 -0 -0 -1 -1 -1 -1 -2 -2 -2 -1 -1 -1 -1 -2 -3 -2 -2 -1 -1 -1 -1 -1 0 1 1 0 0 1 3 4
-2 -2 -2 -2 -2 -1 -2 -1 -2 -2 -2 -3 -3 -3 -2 -1 -1 -1 -2 -3 -3 -3 -1 0 1 -0 -3 -3 -3 -3 -4 -3 -2 -1 -2 -2 -1 -1 -3 -3 -2 -1 -1 -2 -3 -4 -5 -5 -4 -3 -2 -2 -1 -1 0 -0 -1 -0 -0 -0 -1 -1 -1 -1 -1 -1 -2 -3 -4 -4 -4 -2 -2 -1 -1 -1 -1 -1 -1 -1 -1 -1 -0 0 1 0 -0 -1 -1 -1 -1 -1 -2 -2 -2 -1 -1 -1 -2 -1 1 3 5
-1 -1 -1 -2 -1 -1 -1 -1 -1 -2 -2 -2 -3 -3 -2 -1 -1 -1 -1 -2 -3 -3 -2 -0 0 -0 -1 -2 -2 -2 -4 -4 -2 -1 -1 -2 -2 -2 -2 -2 -2 -2 -1 -2 -3 -4 -5 -4 -3 -2 -1 -2 -1 -0 0 -1 -1 -0 -0 -1 -1 -2 -2 -1 -1 -1 -1 -2 -3 -4 -4 -3 -3 -2 -2 -1 -1 -1 -1 -1 -1 -0 0 0 0 0 0 1 1 1 1 -0 -2 -3 -3 -2 -2 -2 -2 -2 -0 2 5
-1 -1 -1 -1 -1 -1 -1 -1 -1 -2 -2 -2 -2 -2 -2 -1 -1 -1 -1 -1 -2 -3 -3 -1 -0 0 -0 -1 -1 -2 -3 -4 -3 -2 -1 -2 -3 -3 -3 -2 -2 -2 -2 -2 -2 -3 -4 -3 -2 -1 -1 -1 -1 -1 -1 -1 -1 -0 -0 -1 -2 -2 -2 -1 -1 -1 -1 -1 -2 -2 -3 -3 -3 -3 -3 -2 -1 -1 -0 0 0 0 -0 -1 -1 -0 0 1 2 2 2 0 -2 -4 -3 -1 -0 -1 -1 -2 -2 -0 2
-1 -1 -1 -1 -1 -1 -1 -1 -1 -1 -2 -2 -2 -2 -2 -2 -1 -1 -1 -0 -1 -1 -2 -2 -0 1 1 -0 -2 -2 -2 -2 -2 -3 -3 -3 -3 -3 -3 -3 -3 -3 -3 -2 -2 -2 -3 -2 -2 -1 -1 0 0 -1 -2 -1 -1 -1 -1 -1 -1 -1 -2 -1 -1 -1 -0 -0 -1 -1 -2 -2 -2 -3 -4 -3 -2 -1 0 1 1 0 -1 -1 -1 -1 -2 -1 1 2 2 -0 -2 -3 -3 -1 0 -0 -1 -2 -2 -3 -2
-2 -2 -1 -1 -1 -1 -1 -1 -1 -1 -1 -2 -2 -2 -2 -2 -2 -2 -1 -1 -0 -0 -1 -2 -1 1 1 0 -1 -1 -1 -0 -1 -2 -2 -3 -4 -4 -4 -3 -2 -2 -2 -2 -3 -3 -3 -2 -2 -1 -0 0 0 -0 -1 -1 -1 -2 -2 -1 -1 -1 -2 -1 -1 -1 -0 -0 -1 -1 -1 -1 -1 -2 -3 -3 -2 -1 -1 -0 0 -0 -1 -2 -2 -3 -3 -3 -2 -0 0 -1 -2 -2 -2 -2 -1 -1 -1 -2 -3 -3 -4
-1 -2 -1 -1 -1 -1 -1 -1 -1 -1 -1 -1 -2 -2 -2 -2 -2 -2 -2 -2 -1 -0 0 0 -0 -2 -3 -1 -1 -0 -1 -1 -1 -2 -4 -3 -3 -3 -4 -3 -2 -2 -2 -3 -4 -4 -4 -3 -2 -1 0 0 1 0 -0 -1 -2 -1 -1 -1 -1 -1 -1 -1 -1 -1 -0 -1 -1 -1 -1 -1 -1 -1 -1 -2 -2 -2 -2 -1 -1 -1 -1 -2 -2 -2 -2 -3 -2 1 5 1 -1 -2 -2 -2 -2 -2 -1 -1 -2 -2 -2
-1 -1 -1 -1 -1 -1 -1 -0 -0 -0 -0 -1 -1 -1 -0 -1 -1 -1 0 -0 -0 0 2 1 -1 -3 -5 -3 -2 -1 -1 -1 -0 -1 -3 -6 -4 -2 -0 -2 -3 -3 -2 -3 -5 -5 -4 -3 -2 -1 0 1 1 1 -1 -2 -1 -0 0 -1 -2 -2 -2 -2 -1 -1 -0 -1 -1 -0 0 -0 -0 -0 -0 -0 -0 -1 -2 -2 -2 -2 -1 -0 -0 -1 -1 -3 0 7 13 7 3 1 1 1 0 -0 -1 -0 0 0 -0
-0 0 -0 -0 -0 -0 -0 -0 0 0 0 -1 -1 0 1 -0 -1 -1 1 1 2 2 2 1 -1 -3 -5 -5 -4 -2 -1 -1 -1 -1 -0 -3 -6 -7 -4 -2 -3 -4 -3 -2 -4 -6 -6 -4 -2 -1 2 3 2 -0 -2 -2 -1 -0 -1 -2 -3 -3 -3 -3 -2 -1 -1 -1 -0 0 1 0 0 -0 0 0 0 -0 -1 -2 -2 -2 -1 -0 -0 -0 -1 -4 -2 4 11 6 2 -0 2 4 5 4 2 0 -1 -1 -0
-1 -1 0 -0 -0 -1 -1 -1 -0 -0 -0 -0 0 1 2 0 -1 -2 -1 0 2 3 1 -0 -1 -1 -3 -4 -4 -3 -1 -1 -2 -3 -3 -1 -3 -7 -11 -10 -8 -5 -3 -1 -3 -6 -7 -5 -3 1 5 3 -0 -2 -3 -1 -1 -2 -2 -3 -3 -3 -4 -3 -2 -2 -3 -2 -0 1 1 1 0 0 0 1 0 -0 -0 -1 -1 -2 -2 -1 -1 -0 0 -2 -2 -0 6 6 1 -3 -3 0 2 2 1 -0 -1 -1 0
-1 -1 -1 -1 -1 -1 -2 -1 -1 -1 -2 -1 0 2 2 -1 -2 -3 -3 -2 1 3 1 -2 -3 -2 -0 -1 -2 -2 -1 -1 -1 -1 -1 -1 0 1 -2 -7 -9 -8 -4 -3 -4 -5 -6 -4 -0 3 4 -1 -4 -4 -3 -3 -3 -2 -2 -1 -1 -2 -4 -4 -3 -3 -3 -2 -1 -0 0 0 0 0 0 1 0 0 0 -0 -1 -1 -2 -2 -1 -0 1 1 -0 -0 3 6 3 -1 -3 -2 -1 -1 -1 -0 -0 0 1
-1 -1 -2 -2 -3 -3 -3 -2 -2 -2 -3 -2 -1 0 1 -2 -3 -3 -3 -1 1 3 2 -1 -3 -4 -2 -1 -1 -2 -1 -1 0 2 4 -0 -2 -0 2 -0 -2 -5 -8 -13 -12 -8 -3 2 6 6 -1 -6 -7 -6 -5 -4 -2 -1 -0 -1 -1 -2 -4 -4 -4 -4 -3 -2 -1 -1 -1 -0 0 1 1 1 1 1 1 0 -1 -1 -1 -1 -1 -0 0 1 1 0 -0 2 2 0 -1 -1 -1 -2 -1 0 0 0 0
-2 -2 -2 -3 -4 -4 -3 -3 -3 -2 -2 -2 -2 -2 -2 -3 -3 -3 -2 0 2 3 2 0 -1 -2 -2 -1 -2 -3 -4 -2 -0 1 4 2 -2 -4 -3 1 3 3 -1 -5 -11 -13 -3 2 1 -3 -6 -9 -9 -7 -3 -2 -0 -0 -1 -1 -2 -3 -4 -3 -3 -4 -4 -4 -3 -2 -2 -1 0 1 1 1 1 1 1 1 0 0 -1 -1 -1 0 0 1 1 1 0 1 2 2 2 1 0 -1 -1 -2 -2 -2 -1
-2 -3 -2 -3 -3 -4 -4 -4 -3 -2 -1 -1 -1 -2 -3 -3 -3 -2 -2 1 3 4 1 -1 -0 0 0 -1 -3 -4 -6 -3 -1 1 2 4 4 3 0 1 2 1 -1 4 1 -5 -7 -1 -4 -9 -11 -6 -4 -3 -1 -0 -0 -1 -2 -2 -3 -4 -4 -3 -4 -4 -4 -3 -3 -2 -2 -1 -0 0 -0 0 1 1 0 1 2 1 -0 -1 -0 1 2 2 2 1 0 2 3 5 5 3 1 -0 -2 -2 -2 -2 -1
-2 -2 -2 -2 -3 -3 -4 -2 -2 -1 -1 -0 -0 -0 -2 -2 -2 -1 -2 1 3 3 0 -1 -0 2 4 0 -2 -4 -6 -5 -2 -0 1 3 6 9 11 3 -2 -6 -6 -1 3 3 -3 -6 -9 -11 -11 -3 -1 -2 -2 -2 -2 -3 -4 -4 -4 -4 -4 -4 -4 -4 -3 -3 -3 -3 -3 -3 -2 -1 0 1 1 1 0 2 2 1 -0 -1 -0 1 3 5 4 2 -1 0 3 5 6 3 0 -2 -3 -3 -3 -2 -1
-3 -3 -2 -3 -3 -2 -1 -1 -1 -1 -1 -0 0 0 -1 -1 -2 -2 -1 0 2 2 0 -1 -0 2 5 3 -1 -4 -5 -6 -4 -1 0 1 2 5 9 11 9 4 -1 -3 -3 -3 -5 -6 -10 -14 -11 -2 -0 -3 -4 -2 -2 -4 -6 -5 -5 -4 -4 -3 -3 -3 -3 -3 -2 -2 -2 -3 -3 -2 0 1 1 1 3 2 2 1 -0 -1 -0 1 3 4 4 2 -1 -1 0 2 4 0 -2 -4 -5 -5 -4 -2 2
-4 -4 -3 -3 -3 -2 -1 -1 -2 -2 -1 -0 -0 -1 -1 -1 -2 -3 -3 -0 2 2 -0 -1 -0 1 3 4 2 -1 -3 -6 -7 -5 0 -0 -1 -1 1 7 12 15 14 9 2 -5 -10 -4 -0 -3 -18 -9 -3 -0 -4 -2 -2 -3 -6 -6 -5 -4 -3 -3 -2 -2 -2 -3 -2 -2 -2 -1 -1 -1 -1 -0 -0 1 2 3 2 1 0 -0 0 1 2 3 3 3 2 -1 -2 -1 0 -3 -5 -6 -6 -7 -4 -0 5
-4 -5 -4 -4 -2 -1 -1 -1 -1 -1 -1 -0 -0 -1 -2 -2 -1 -1 -1 1 3 3 1 1 1 2 1 2 3 1 -1 -4 -7 -9 -5 -3 -3 -2 0 5 6 6 9 9 7 4 -3 -2 3 3 -12 -18 -11 -1 -0 -3 -4 -6 -6 -6 -5 -4 -2 -2 -2 -2 -2 -1 -2 -2 -3 -2 -2 -2 -2 -2 -1 0 2 4 4 3 1 1 1 1 2 3 4 4 5 -1 -2 -1 1 -4 -7 -8 -8 -8 -3 3 6
-4 -4 -4 -3 -2 -1 -1 -1 -1 -1 -1 -0 -0 0 -1 -1 1 3 4 5 5 5 6 5 4 3 2 1 1 1 -1 -2 -4 -5 -6 -5 -3 1 6 8 7 6 6 5 6 6 8 7 4 -0 -1 -9 -15 -15 -3 -2 -4 -7 -8 -6 -4 -2 -1 -2 -3 -2 -2 -1 -1 -2 -3 -3 -2 -2 -2 -2 -1 0 2 5 4 3 2 1 1 1 2 4 4 5 5 0 1 4 6 -2 -7 -9 -10 -7 -2 4 7
-4 -4 -4 -3 -2 -1 -1 -1 -1 -1 -1 -0 1 1 1 0 2 4 7 8 8 10 11 9 7 5 3 1 1 1 -0 -2 -3 -2 -0 -0 -0 2 6 7 5 3 3 3 2 2 4 7 6 4 5 6 -3 -13 -16 -8 -6 -6 -6 -6 -4 -2 -1 -2 -3 -2 -2 -1 -1 -1 -2 -3 -2 -2 -2 -2 -2 -1 2 4 4 3 2 1 0 0 2 5 6 6 5 3 4 7 9 -1 -7 -10 -10 -8 -3 3 9
-3 -3 -3 -2 -2 -2 -2 -2 -2 -2 -2 0 1 1 1 1 2 4 7 8 10 13 15 13 10 6 3 1 1 1 2 1 -0 -1 1 5 4 1 1 1 -0 -2 -2 -2 -2 -2 -1 -1 -0 3 9 10 8 2 -9 -14 -13 -10 -8 -5 -4 -3 -3 -2 -2 -1 -0 -1 -2 -2 -2 -3 -3 -2 -2 -2 -2 -1 1 3 4 3 3 2 0 0 3 6 8 9 9 5 5 7 9 1 -6 -10 -10 -9 -5 0 10
Height
1563 1562 1561 1560 1559 1558 1558 1557 1557 1556 1555 1555 1554 1553 1552 1551 1550 1549 1548 1547 1546 1545 1544 1542 1541 1540 1539 1538 1537 1537 1536 1535 1535 1534 1532 1532 1532 1532 1532 1532 1532 1531 1530 1529 1528 1528 1528 1528 1528 1529 1530 1530 1530 1531 1531 1531 1531 1531 1532 1532 1532 1532 1532 1532 1533 1533 1533 1533 1533 1533 1534 1534 1534 1535 1535 1535 1536 1536 1536 1537 1537 1538 1538 1538 1539 1539 1540 1540 1540 1540 1541 1541 1541 1541 1542 1542 1542 1542 1543 1543 1544 1544 1545
1563 1562 1561 1559 1558 1557 1557 1556 1555 1554 1554 1553 1553 1552 1551 1550 1549 1548 1547 1546 1545 1544 1543 1541 1540 1539 1538 1537 1536 1535 1535 1534 1533 1532 1531 1531 1531 1531 1531 1531 1530 1529 1528 1527 1526 1526 1526 1526 1527 1527 1528 1528 1528 1528 1529 1529 1529 1529 1529 1529 1530 1530 1531 1531 1531 1531 1531 1531 1532 1532 1532 1532 1532 1532 1533 1533 1533 1534 1535 1535 1536 1536 1537 1537 1537 1538 1538 1538 1539 1539 1539 1540 1540 1540 1540 1540 1541 1541 1542 1542 1542 1543 1544
1563 1562 1561 1560 1558 1557 1556 1555 1554 1553 1552 1552 1551 1551 1550 1549 1548 1547 1546 1545 1544 1543 1542 1540 1539 1538 1537 1536 1535 1534 1533 1532 1532 1531 1530 1530 1530 1530 1530 1529 1528 1527 1526 1525 1524 1524 1524 1524 1525 1525 1526 1526 1527 1527 1527 1526 1526 1526 1527 1527 1527 1528 1528 1529 1529 1529 1530 1530 1530 1530 1530 1531 1530 1530 1531 1531 1532 1532 1534 1534 1534 1535 1535 1535 1536 1536 1537 1537 1537 1537 1538 1538 1538 1539 1539 1539 1539 1540 1540 1541 1541 1542 1543
1564 1562 1562 1560 1559 1558 1556 1555 1554 1552 1552 1551 1550 1549 1548 1548 1547 1546 1545 1544 1543 1542 1540 1539 1538 1537 1535 1534 1533 1532 1532 1530 1529 1529 1529 1529 1529 1529 1528 1527 1526 1525 1524 1523 1522 1522 1522 1522 1523 1523 1524 1524 1525 1525 1525 1524 1524 1525 1525 1525 1525 1526 1526 1527 1527 1528 1528 1528 1528 1528 1529 1529 1529 1529 1529 1529 1530 1531 1532 1532 1533 1533 1533 1534 1534 1535 1535 1536 1536 1536 1537 1537 1537 1537 1538 1538 1538 1539 1539 1539 1540 1541 1541
1564 1563 1562 1561 1559 1558 1557 1555 1554 1552 1551 1550 1549 1548 1547 1546 1546 1545 1544 1542 1542 1540 1539 1538 1537 1536 1534 1533 1532 1531 1530 1528 1527 1527 1528 1528 1528 1527 1526 1525 1524 1523 1522 1522 1521 1520 1520 1520 1521 1521 1522 1522 1522 1522 1522 1523 1523 1523 1523 1523 1523 1524 1524 1525 1526 1526 1526 1526 1526 1526 1527 1527 1527 1527 1527 1527 1528 1528 1530 1531 1531 1531 1531 1532 1533 1533 1533 1534 1534 1535 1535 1535 1536 1536 1536 1537 1537 1537 1538 1538 1539 1539 1540
1564 1563 1562 1561 1559 1558 1557 1556 1554 1552 1551 1550 1548 1547 1546 1545 1544 1543 1542 1541 1540 1539 1538 1537 1536 1535 1533 1532 1531 1530 1528 1527 1526 1525 1526 1527 1527 1526 1525 1523 1522 1521 1521 1520 1519 1519 1518 1518 1519 1519 1520 1520 1520 1520 1520 1520 1521 1521 1521 1521 1521 1522 1522 1523 1523 1524 1524 1524 1524 1524 1524 1524 1524 1524 1525 1525 1526 1527 1528 1528 1528 1529 1529 1530 1531 1532 1532 1532 1532 1533 1533 1534 1534 1534 1535 1535 1536 1536 1536 1537 1537 1538 1539
1564 1563 1562 1561 1559 1558 1557 1555 1554 1552 1551 1550 1548 1547 1545 1544 1543 1542 1541 1540 1538 1537 1537 1536 1535 1533 1532 1531 1530 1529 1527 1526 1524 1524 1524 1525 1525 1524 1523 1522 1521 1519 1518 1518 1518 1517 1517 1517 1517 1517 1517 1517 1518 1518 1518 1518 1518 1518 1518 1518 1519 1520 1520 1521 1521 1521 1522 1522 1523 1522 1522 1522 1522 1522 1523 1523 1524 1525 1526 1526 1526 1527 1527 1528 1529 1529 1530 1530 1531 1531 1532 1532 1533 1533 1533 1533 1534 1534 1535 1535 1536 1537 1537
1564 1563 1562 1560 1559 1558 1556 1555 1553 1552 1551 1549 1548 1547 1545 1543 1542 1541 1539 1538 1537 1536 1535 1534 1533 1532 1531 1530 1529 1528 1527 1525 1524 1523 1523 1523 1522 1522 1521 1520 1519 1518 1517 1516 1516 1516 1516 1515 1515 1515 1515 1515 1515 1515 1515 1516 1516 1516 1516 1517 1517 1517 1518 1518 1518 1519 1519 1520 1520 1521 1520 1519 1519 1520 1521 1522 1522 1523 1524 1524 1524 1524 1525 1526 1527 1527 1527 1528 1528 1529 1530 1530 1530 1530 1531 1532 1532 1533 1534 1534 1534 1535 1536
1563 1562 1561 1559 1558 1557 1556 1554 1553 1552 1550 1549 1547 1546 1545 1543 1542 1540 1539 1537 1536 1535 1534 1533 1532 1531 1530 1529 1528 1527 1526 1524 1523 1523 1522 1521 1520 1520 1519 1518 1517 1516 1515 1515 1514 1514 1514 1514 1513 1513 1513 1513 1513 1513 1513 1513 1513 1514 1514 1514 1515 1515 1516 1516 1516 1516 1517 1517 1517 1517 1518 1517 1517 1517 1518 1519 1519 1520 1522 1522 1522 1523 1523 1524 1524 1525 1525 1525 1526 1527 1527 1527 1528 1528 1529 1530 1530 1531 1532 1533 1533 1534 1534
1562 1561 1560 1558 1557 1556 1555 1553 1552 1551 1549 1548 1547 1546 1544 1543 1541 1540 1538 1537 1535 1534 1533 1532 1531 1530 1529 1527 1527 1525 1525 1524 1523 1522 1521 1520 1518 1518 1517 1516 1516 1515 1514 1513 1513 1513 1512 1512 1512 1512 1511 1511 1511 1511 1511 1511 1511 1511 1512 1512 1512 1513 1513 1514 1514 1514 1514 1514 1515 1515 1515 1516 1516 1516 1515 1516 1517 1518 1519 1520 1521 1521 1521 1522 1522 1522 1523 1523 1524 1525 1525 1526 1526 1527 1527 1528 1529 1529 1530 1531 1532 1532 1533
1561 1559 1558 1557 1556 1554 1553 1552 1551 1549 1548 1547 1546 1545 1543 1542 1541 1539 1537 1536 1534 1533 1532 1531 1530 1529 1527 1526 1525 1524 1523 1523 1522 1521 1520 1518 1517 1516 1515 1514 1513 1513 1512 1512 1512 1511 1511 1510 1510 1510 1509 1509 1509 1508 1508 1508 1508 1509 1509 1510 1510 1511 1511 1511 1511 1511 1512 1512 1512 1512 1512 1513 1513 1513 1513 1513 1514 1515 1516 1517 1518 1519 1519 1520 1520 1520 1521 1521 1522 1523 1523 1523 1524 1525 1526 1527 1527 1528 1528 1529 1530 1531 1532
1559 1557 1556 1555 1554 1552 1551 1550 1549 1548 1547 1546 1544 1543 1542 1541 1539 1538 1537 1535 1534 1532 1531 1530 1528 1527 1526 1525 1524 1523 1522 1522 1521 1520 1519 1518 1516 1515 1514 1512 1512 1511 1511 1510 1510 1510 1509 1508 1508 1508 1508 1507 1507 1506 1506 1506 1506 1506 1507 1507 1508 1508 1508 1508 1509 1509 1509 1509 1510 1510 1510 1510 1510 1510 1511 1511 1512 1512 1513 1514 1515 1515 1517 1517 1518 1518 1518 1519 1519 1520 1521 1521 1521 1522 1523 1524 1525 1526 1527 1527 1528 1529 1530
1557 1556 1554 1553 1552 1550 1549 1548 1547 1546 1545 1544 1542 1542 1540 1539 1538 1537 1536 1534 1533 1531 1530 1528 1527 1526 1525 1523 1522 1522 1521 1520 1520 1519 1518 1517 1516 1514 1513 1511 1510 1509 1509 1508 1508 1508 1507 1507 1506 1506 1506 1505 1505 1504 1504 1504 1504 1504 1504 1505 1505 1505 1505 1505 1506 1506 1506 1507 1507 1507 1507 1507 1507 1507 1508 1509 1509 1510 1510 1511 1512 1512 1514 1515 1515 1516 1516 1517 1517 1518 1518 1518 1519 1520 1521 1521 1522 1524 1525 1526 1526 1527 1528
1556 1554 1553 1552 1550 1549 1547 1546 1545 1544 1543 1542 1541 1540 1538 1538 1537 1536 1534 1533 1532 1530 1529 1527 1526 1525 1523 1522 1521 1520 1520 1519 1518 1517 1517 1516 1514 1513 1512 1510 1509 1508 1507 1507 1506 1506 1505 1505 1504 1504 1503 1503 1503 1502 1502 1502 1501 1502 1502 1503 1503 1503 1503 1503 1503 1503 1503 1503 1504 1504 1504 1505 1505 1505 1506 1506 1507 1507 1508 1508 1509 1510 1511 1512 1512 1513 1513 1514 1515 1516 1516 1517 1517 1518 1519 1520 1520 1521 1522 1523 1524 1525 1526
1555 1553 1552 1550 1549 1547 1546 1545 1544 1542 1541 1540 1539 1538 1537 1536 1535 1534 1533 1532 1530 1529 1528 1527 1525 1524 1522 1521 1520 1519 1518 1518 1517 1516 1515 1514 1513 1512 1511 1509 1508 1507 1506 1505 1504 1504 1503 1503 1502 1502 1501 1501 1501 1500 1500 1499 1499 1499 1500 1500 1500 1500 1500 1501 1501 1501 1501 1501 1501 1501 1502 1502 1502 1503 1503 1504 1504 1505 1505 1505 1507 1508 1509 1509 1510 1511 1511 1512 1513 1513 1514 1514 1515 1516 1517 1518 1518 1519 1520 1521 1522 1523 1524
1554 1553 1551 1550 1548 1547 1545 1544 1542 1541 1540 1538 1537 1536 1535 1534 1533 1532 1531 1530 1529 1527 1526 1525 1524 1522 1521 1520 1518 1517 1517 1516 1515 1515 1514 1513 1512 1511 1509 1508 1507 1506 1504 1503 1502 1502 1501 1501 1500 1500 1499 1499 1498 1498 1498 1497 1497 1497 1497 1497 1497 1497 1498 1498 1498 1498 1498 1498 1498 1498 1499 1500 1500 1500 1501 1501 1501 1502 1502 1502 1503 1505 1506 1507 1507 1508 1509 1510 1510 1511 1512 1512 1513 1514 1514 1515 1516 1517 1518 1519 1520 1521 1522
1553 1552 1550 1548 1547 1546 1544 1542 1541 1540 1538 1537 1536 1534 1533 1532 1531 1530 1529 1528 1527 1526 1525 1523 1522 1521 1520 1518 1517 1516 1515 1514 1513 1512 1512 1512 1511 1509 1508 1507 1506 1504 1503 1502 1501 1500 1499 1499 1498 1498 1497 1497 1496 1496 1495 1495 1495 1495 1495 1495 1495 1495 1495 1495 1495 1495 1496 1496 1496 1496 1497 1497 1497 1498 1498 1498 1498 1499 1499 1500 1501 1502 1503 1504 1505 1506 1506 1507 1508 1508 1509 1510 1511 1511 1512 1513 1514 1515 1516 1517 1518 1518 1519
1552 1550 1549 1547 1546 1544 1542 1541 1540 1538 1537 1535 1534 1533 1532 1530 1529 1528 1527 1526 1525 1524 1523 1522 1521 1519 1518 1517 1516 1514 1513 1512 1511 1510 1510 1509 1509 1508 1507 1505 1504 1503 1502 1500 1499 1498 1497 1497 1496 1496 1495 1495 1494 1493 1493 1493 1493 1493 1493 1493 1492 1492 1492 1492 1492 1492 1493 1493 1494 1494 1494 1494 1495 1495 1495 1496 1496 1496 1497 1497 1498 1499 1500 1501 1502 1503 1504 1504 1505 1506 1507 1507 1508 1509 1510 1511 1512 1513 1514 1515 1515 1516 1517
1550 1549 1547 1546 1544 1542 1541 1540 1538 1537 1535 1534 1532 1531 1530 1528 1527 1526 1525 1524 1523 1522 1521 1520 1519 1518 1517 1515 1514 1513 1512 1511 1509 1508 1507 1507 1506 1506 1505 1504 1503 1502 1500 1499 1498 1497 1496 1495 1494 1494 1493 1492 1492 1491 1491 1491 1491 1491 1491 1490 1490 1490 1490 1490 1490 1490 1490 1491 1491 1491 1492 1492 1493 1493 1493 1493 1493 1494 1494 1495 1496 1496 1497 1498 1499 1500 1501 1502 1502 1503 1504 1505 1506 1507 1507 1508 1509 1510 1511 1512 1513 1514 1515
1548 1547 1545 1544 1542 1541 1539 1538 1537 1535 1533 1532 1531 1529 1528 1527 1525 1524 1523 1522 1520 1519 1518 1517 1517 1516 1515 1514 1512 1511 1510 1509 1508 1507 1505 1504 1504 1503 1503 1502 1501 1500 1499 1498 1496 1495 1494 1493 1492 1492 1491 1491 1490 1489 1489 1488 1488 1488 1488 1488 1488 1487 1487 1487 1487 1487 1487 1488 1488 1489 1490 1490 1490 1490 1490 1490 1491 1491 1492 1492 1493 1494 1495 1495 1496 1497 1498 1499 1500 1501 1502 1502 1503 1504 1505 1506 1507 1508 1508 1510 1511 1512 1513
1546 1545 1543 1542 1541 1539 1537 1536 1535 1533 1532 1530 1529 1527 1526 1525 1523 1522 1521 1519 1518 1517 1516 1515 1514 1513 1512 1511 1511 1510 1508 1507 1506 1505 1504 1503 1502 1501 1501 1500 1499 1498 1497 1496 1495 1494 1492 1491 1491 1490 1489 1488 1488 1487 1487 1486 1486 1486 1486 1486 1486 1485 1485 1485 1485 1485 1485 1485 1486 1487 1487 1487 1487 1487 1487 1487 1488 1488 1489 1490 1491 1491 1492 1492 1493 1494 1495 1496 1497 1498 1499 1500 1501 1502 1502 1503 1504 1506 1506 1507 1508 1510 1511
1545 1543 1541 1540 1538 1537 1535 1534 1532 1531 1530 1529 1527 1525 1524 1523 1522 1520 1519 1517 1516 1515 1513 1512 1511 1510 1509 1509 1508 1507 1507 1506 1505 1503 1502 1502 1500 1499 1498 1497 1497 1496 1495 1494 1493 1492 1491 1490 1489 1488 1487 1486 1486 1485 1485 1484 1484 1484 1484 1484 1483 1483 1483 1482 1482 1482 1483 1483 1483 1483 1484 1485 1484 1484 1485 1485 1485 1486 1486 1487 1488 1488 1489 1490 1491 1492 1493 1494 1495 1496 1497 1497 1498 1499 1500 1501 1502 1503 1504 1505 1506 1507 1508
1543 1541 1539 1538 1537 1535 1533 1532 1531 1529 1528 1527 1526 1524 1522 1521 1520 1518 1517 1515 1514 1513 1512 1510 1509 1508 1507 1506 1505 1505 1504 1504 1503 1502 1500 1500 1499 1498 1497 1496 1495 1494 1493 1493 1492 1491 1489 1488 1487 1486 1485 1484 1483 1483 1483 1482 1482 1482 1482 1481 1481 1481 1480 1480 1480 1480 1480 1480 1480 1481 1481 1482 1482 1482 1482 1482 1483 1483 1484 1484 1485 1486 1487 1488 1489 1490 1491 1492 1492 1493 1494 1495 1496 1497 1497 1498 1499 1500 1502 1502 1504 1505 1506
1541 1539 1537 1536 1535 1533 1532 1530 1529 1527 1526 1525 1524 1522 1520 1519 1518 1517 1515 1514 1513 1512 1510 1509 1507 1506 1505 1504 1503 1502 1502 1502 1501 1500 1499 1498 1497 1496 1495 1494 1493 1492 1491 1491 1490 1489 1488 1487 1486 1484 1483 1482 1482 1481 1480 1480 1480 1480 1479 1479 1479 1478 1478 1478 1478 1478 1478 1478 1478 1478 1478 1479 1479 1479 1480 1480 1480 1481 1481 1482 1483 1483 1484 1486 1487 1487 1488 1489 1490 1491 1491 1492 1493 1494 1495 1496 1497 1498 1499 1500 1501 1502 1503
1539 1537 1535 1534 1533 1532 1530 1529 1527 1526 1524 1523 1522 1521 1519 1517 1517 1515 1514 1512 1511 1510 1508 1507 1506 1505 1503 1502 1501 1500 1500 1499 1499 1498 1497 1497 1495 1494 1493 1492 1491 1490 1489 1488 1488 1487 1486 1485 1484 1483 1482 1480 1479 1478 1478 1478 1478 1478 1477 1477 1476 1476 1476 1476 1476 1475 1475 1475 1476 1476 1476 1476 1476 1477 1477 1477 1478 1478 1479 1480 1480 1481 1482 1483 1484 1485 1486 1486 1487 1488 1489 1490 1491 1492 1492 1493 1494 1495 1496 1497 1498 1500 1501
1537 1535 1534 1532 1531 1530 1528 1527 1526 1524 1522 1521 1520 1519 1517 1516 1515 1514 1512 1511 1509 1508 1507 1506 1504 1503 1502 1501 1499 1498 1497 1497 1497 1496 1495 1495 1494 1492 1492 1491 1489 1488 1487 1486 1486 1485 1484 1483 1482 1481 1480 1478 1477 1476 1476 1476 1476 1476 1475 1475 1474 1474 1474 1473 1473 1473 1473 1473 1473 1473 1473 1473 1474 1474 1475 1475 1476 1476 1477 1477 1478 1478 1479 1480 1481 1482 1483 1484 1485 1485 1486 1487 1488 1489 1490 1490 1492 1492 1493 1495 1496 1497 1498
1535 1534 1532 1531 1529 1528 1527 1525 1524 1522 1521 1520 1519 1517 1516 1514 1513 1512 1511 1509 1508 1507 1505 1504 1503 1502 1500 1499 1497 1497 1496 1495 1494 1493 1493 1492 1492 1491 1490 1489 1488 1487 1486 1484 1484 1483 1482 1482 1481 1480 1478 1477 1476 1474 1473 1473 1473 1473 1473 1472 1472 1472 1471 1471 1471 1471 1471 1471 1471 1471 1471 1471 1471 1472 1472 1472 1473 1474 1474 1475 1476 1476 1477 1477 1478 1479 1481 1482 1482 1483 1484 1484 1485 1486 1487 1488 1489 1490 1491 1492 1493 1495 1496
1534 1532 1531 1529 1527 1526 1525 1523 1522 1521 1520 1518 1517 1516 1515 1513 1512 1510 1509 1508 1507 1505 1504 1502 1501 1500 1498 1497 1496 1495 1493 1493 1492 1491 1490 1490 1489 1488 1488 1487 1486 1485 1484 1482 1482 1481 1480 1480 1479 1478 1477 1476 1474 1472 1471 1471 1471 1471 1471 1470 1470 1469 1469 1468 1468 1468 1468 1468 1468 1468 1468 1468 1469 1469 1469 1470 1471 1471 1472 1473 1473 1473 1474 1475 1475 1477 1478 1479 1479 1480 1481 1482 1482 1483 1484 1485 1486 1487 1488 1489 1490 1492 1492
1532 1531 1530 1528 1527 1525 1524 1522 1521 1519 1518 1517 1516 1514 1513 1512 1510 1509 1507 1507 1505 1504 1502 1501 1499 1498 1497 1495 1494 1493 1492 1491 1490 1489 1488 1487 1487 1486 1486 1485 1484 1483 1482 1481 1480 1479 1478 1477 1477 1476 1475 1474 1472 1471 1469 1468 1468 1468 1469 1468 1468 1467 1467 1466 1466 1466 1466 1466 1466 1466 1466 1466 1466 1467 1467 1467 1468 1469 1469 1470 1470 1471 1471 1472 1472 1473 1474 1476 1477 1477 1478 1479 1479 1480 1482 1482 1483 1484 1485 1486 1487 1489 1490
1531 1530 1528 1527 1526 1524 1522 1521 1519 1518 1517 1515 1514 1513 1512 1511 1509 1507 1506 1505 1504 1502 1501 1499 1498 1497 1495 1494 1492 1492 1490 1489 1488 1487 1486 1485 1485 1484 1483 1482 1482 1481 1480 1479 1478 1477 1476 1475 1475 1474 1473 1472 1471 1469 1468 1467 1466 1466 1466 1466 1466 1465 1464 1464 1463 1463 1463 1463 1463 1463 1463 1463 1464 1464 1464 1464 1465 1466 1466 1466 1467 1467 1468 1469 1470 1471 1472 1472 1473 1474 1475 1476 1477 1478 1478 1479 1480 1481 1482 1483 1485 1486 1487
1529 1528 1527 1526 1524 1523 1522 1520 1518 1517 1515 1514 1513 1511 1510 1509 1508 1507 1505 1504 1502 1501 1499 1498 1497 1495 1494 1492 1491 1490 1489 1488 1486 1485 1484 1483 1482 1482 1481 1480 1480 1479 1478 1477 1476 1475 1474 1473 1472 1472 1471 1470 1469 1467 1466 1465 1464 1463 1464 1464 1463 1463 1462 1461 1461 1461 1461 1461 1461 1461 1461 1461 1461 1461 1462 1462 1462 1462 1463 1464 1464 1465 1466 1466 1467 1468 1469 1469 1470 1472 1472 1474 1475 1475 1476 1476 1477 1478 1479 1481 1482 1483 1485
1528 1527 1526 1525 1523 1522 1521 1519 1517 1516 1514 1513 1512 1510 1509 1508 1507 1505 1504 1503 1501 1500 1498 1497 1495 1494 1492 1491 1490 1488 1487 1486 1485 1483 1482 1481 1480 1479 1479 1478 1477 1477 1476 1475 1474 1473 1472 1471 1471 1470 1469 1468 1467 1466 1464 1463 1462 1461 1461 1461 1461 1461 1460 1459 1459 1458 1458 1458 1458 1458 1458 1458 1458 1459 1459 1459 1460 1460 1460 1461 1462 1462 1463 1463 1464 1465 1466 1467 1468 1469 1470 1471 1472 1472 1473 1474 1474 1475 1477 1478 1479 1480 1482
1527 1526 1525 1523 1522 1521 1519 1518 1516 1515 1513 1512 1511 1509 1507 1507 1505 1504 1502 1501 1500 1499 1497 1496 1494 1492 1491 1489 1488 1487 1486 1485 1483 1482 1480 1479 1478 1477 1477 1476 1475 1474 1474 1473 1472 1471 1470 1469 1468 1468 1467 1466 1465 1464 1463 1462 1461 1459 1459 1459 1459 1458 1458 1457 1457 1456 1456 1456 1456 1456 1456 1456 1456 1456 1456 1457 1457 1457 1457 1457 1458 1459 1460 1461 1462 1462 1463 1464 1465 1466 1467 1468 1469 1470 1471 1472 1472 1473 1474 1475 1476 1478 1479
1527 1525 1524 1522 1521 1520 1518 1517 1515 1514 1512 1511 1509 1508 1506 1505 1504 1502 1501 1500 1499 1497 1496 1495 1493 1492 1490 1488 1487 1486 1484 1483 1482 1481 1479 1478 1477 1476 1475 1474 1473 1472 1472 1471 1470 1469 1468 1467 1467 1466 1465 1464 1463 1462 1461 1460 1459 1458 1457 1456 1456 1456 1456 1455 1454 1454 1454 1454 1454 1454 1454 1453 1453 1453 1453 1453 1454 1454 1454 1454 1455 1455 1456 1457 1458 1459 1461 1462 1463 1464 1465 1466 1467 1468 1469 1469 1470 1471 1472 1472 1474 1475 1477
1526 1524 1523 1522 1520 1519 1517 1516 1514 1512 1511 1510 1508 1507 1505 1504 1502 1501 1500 1498 1497 1496 1495 1493 1492 1490 1489 1487 1486 1484 1483 1482 1481 1479 1477 1476 1475 1474 1473 1472 1471 1470 1470 1469 1468 1467 1467 1466 1465 1464 1463 1462 1462 1460 1459 1458 1457 1456 1455 1454 1454 1453 1453 1453 1452 1452 1452 1452 1452 1451 1451 1451 1451 1451 1451 1450 1451 1451 1451 1451 1452 1452 1453 1454 1456 1457 1458 1459 1460 1461 1462 1463 1464 1465 1466 1467 1467 1468 1469 1470 1471 1472 1474
1525 1524 1522 1521 1519 1517 1516 1515 1513 1511 1510 1508 1507 1505 1504 1502 1501 1499 1498 1497 1495 1494 1492 1492 1490 1489 1487 1486 1484 1482 1481 1480 1479 1477 1476 1475 1474 1472 1472 1470 1469 1468 1467 1467 1466 1465 1465 1464 1463 1462 1462 1461 1460 1458 1457 1457 1456 1455 1454 1452 1452 1451 1451 1451 1450 1450 1449 1449 1449 1449 1449 1448 1448 1448 1448 1448 1448 1448 1448 1449 1449 1450 1451 1452 1453 1455 1456 1457 1457 1458 1459 1460 1461 1462 1463 1464 1465 1466 1467 1468 1469 1470 1471
1524 1522 1521 1520 1518 1517 1515 1513 1512 1510 1508 1507 1506 1504 1502 1501 1500 1498 1497 1495 1493 1492 1491 1489 1488 1487 1486 1484 1482 1481 1480 1478 1477 1476 1474 1473 1472 1471 1470 1468 1467 1467 1466 1465 1464 1463 1463 1462 1461 1461 1460 1459 1458 1457 1456 1455 1454 1453 1452 1451 1450 1449 1449 1448 1448 1447 1447 1447 1447 1446 1446 1446 1446 1446 1446 1446 1446 1446 1446 1447 1447 1448 1448 1449 1451 1452 1453 1454 1455 1456 1457 1457 1458 1459 1460 1461 1462 1463 1464 1465 1467 1468 1469
1523 1521 1520 1518 1517 1515 1514 1512 1510 1509 1507 1506 1504 1503 1501 1500 1498 1497 1495 1494 1492 1491 1489 1487 1486 1485 1484 1483 1481 1480 1478 1477 1476 1474 1473 1472 1470 1469 1468 1467 1466 1465 1464 1463 1462 1462 1461 1460 1459 1459 1458 1457 1456 1455 1454 1453 1452 1452 1451 1450 1449 1448 1447 1447 1446 1445 1445 1444 1444 1444 1444 1444 1444 1444 1444 1444 1444 1444 1444 1444 1445 1445 1446 1447 1448 1449 1450 1451 1452 1453 1454 1455 1456 1457 1457 1459 1460 1461 1462 1463 1464 1465 1467
1522 1520 1518 1517 1516 1514 1512 1511 1509 1507 1506 1504 1503 1502 1500 1498 1497 1496 1494 1492 1491 1489 1488 1486 1484 1483 1482 1481 1480 1478 1477 1476 1474 1473 1471 1470 1469 1467 1466 1465 1464 1463 1462 1461 1461 1460 1459 1458 1458 1457 1457 1456 1454 1453 1452 1452 1451 1450 1449 1448 1448 1447 1446 1445 1444 1444 1443 1442 1441 1441 1442 1442 1442 1442 1442 1442 1442 1442 1442 1442 1442 1442 1443 1444 1445 1446 1447 1449 1450 1451 1452 1452 1453 1454 1455 1457 1457 1459 1460 1461 1462 1463 1464
1521 1519 1517 1516 1514 1513 1511 1510 1508 1506 1505 1503 1502 1500 1499 1497 1496 1494 1493 1491 1490 1488 1487 1485 1483 1482 1480 1479 1478 1477 1476 1474 1473 1472 1470 1469 1467 1466 1465 1463 1462 1461 1460 1460 1459 1458 1457 1457 1456 1456 1455 1454 1453 1452 1451 1450 1449 1448 1448 1447 1446 1446 1445 1444 1443 1442 1441 1440 1439 1439 1439 1439 1440 1439 1439 1439 1439 1439 1439 1439 1440 1440 1441 1441 1442 1443 1445 1446 1447 1448 1449 1450 1451 1452 1453 1454 1456 1457 1457 1458 1459 1461 1462
1519 1518 1516 1515 1513 1512 1510 1508 1507 1505 1503 1502 1500 1499 1497 1496 1495 1493 1492 1490 1488 1487 1486 1484 1482 1481 1479 1478 1477 1476 1474 1473 1472 1470 1469 1467 1466 1464 1463 1462 1461 1460 1459 1458 1457 1456 1455 1455 1455 1454 1453 1452 1451 1450 1449 1448 1447 1447 1446 1446 1445 1444 1444 1443 1442 1441 1440 1439 1438 1437 1437 1437 1437 1437 1437 1437 1437 1437 1437 1437 1437 1438 1438 1439 1440 1441 1442 1444 1445 1446 1447 1448 1448 1449 1450 1452 1453 1454 1455 1456 1457 1458 1460
1518 1517 1515 1513 1512 1510 1509 1507 1505 1504 1502 1501 1499 1498 1496 1495 1494 1492 1490 1488 1487 1485 1484 1483 1482 1480 1478 1477 1475 1474 1473 1472 1470 1469 1467 1466 1464 1463 1462 1460 1459 1458 1457 1456 1456 1455 1454 1454 1453 1452 1451 1450 1449 1449 1448 1447 1446 1446 1445 1444 1444 1443 1442 1442 1441 1440 1439 1438 1437 1436 1435 1435 1435 1435 1435 1435 1435 1435 1435 1435 1436 1436 1437 1437 1438 1439 1441 1442 1443 1444 1445 1446 1446 1447 1447 1448 1449 1450 1452 1453 1455 1456 1457
1517 1515 1514 1512 1511 1509 1507 1506 1504 1502 1501 1499 1498 1497 1495 1494 1492 1491 1489 1487 1486 1484 1483 1482 1481 1479 1477 1476 1475 1473 1472 1470 1469 1467 1466 1464 1462 1461 1460 1459 1457 1457 1456 1455 1454 1454 1453 1452 1452 1451 1450 1449 1448 1447 1446 1445 1445 1444 1444 1443 1442 1442 1441 1440 1439 1438 1437 1437 1436 1434 1434 1433 1433 1433 1433 1433 1433 1433 1433 1433 1433 1434 1434 1435 1436 1437 1438 1440 1441 1442 1443 1443 1444 1444 1445 1446 1446 1447 1448 1450 1452 1453 1455
1516 1514 1513 1511 1509 1508 1506 1505 1503 1501 1500 1498 1497 1495 1494 1493 1491 1490 1488 1487 1485 1483 1481 1480 1479 1478 1477 1476 1474 1472 1471 1469 1467 1466 1464 1462 1461 1459 1458 1457 1456 1455 1454 1454 1453 1453 1452 1451 1450 1449 1448 1447 1446 1445 1445 1444 1443 1443 1442 1442 1441 1440 1439 1438 1438 1437 1436 1435 1434 1433 1433 1432 1431 1431 1431 1431 1431 1431 1431 1431 1432 1432 1432 1432 1433 1435 1436 1437 1438 1439 1440 1441 1441 1442 1442 1443 1444 1445 1446 1447 1449 1450 1452
1515 1513 1511 1510 1508 1507 1505 1503 1502 1500 1498 1497 1496 1494 1493 1492 1490 1489 1487 1486 1484 1482 1480 1479 1478 1477 1476 1475 1473 1471 1470 1468 1466 1464 1462 1461 1459 1458 1457 1455 1455 1454 1453 1453 1452 1452 1451 1450 1449 1448 1447 1446 1445 1444 1443 1443 1442 1442 1441 1440 1440 1439 1438 1437 1437 1436 1435 1434 1433 1432 1432 1431 1430 1429 1428 1428 1429 1429 1429 1429 1429 1429 1430 1430 1431 1432 1432 1434 1435 1436 1437 1438 1439 1439 1440 1441 1442 1442 1443 1444 1446 1447 1448
1513 1512 1510 1508 1507 1505 1504 1502 1501 1499 1497 1496 1494 1493 1492 1490 1489 1487 1486 1484 1483 1481 1480 1478 1477 1476 1475 1474 1472 1470 1468 1467 1465 1463 1461 1460 1458 1456 1455 1454 1453 1453 1452 1451 1451 1450 1449 1448 1447 1447 1446 1445 1444 1443 1442 1442 1441 1440 1440 1439 1438 1437 1436 1436 1435 1434 1434 1433 1432 1431 1431 1430 1429 1428 1427 1427 1427 1427 1427 1427 1427 1427 1427 1427 1428 1429 1430 1431 1432 1434 1435 1435 1436 1437 1437 1438 1439 1440 1441 1442 1443 1444 1445
1512 1510 1509 1507 1505 1504 1502 1501 1499 1498 1497 1495 1493 1492 1491 1490 1488 1487 1485 1483 1482 1480 1479 1478 1477 1475 1473 1472 1471 1469 1467 1466 1464 1462 1460 1458 1457 1455 1454 1453 1452 1452 1451 1450 1449 1448 1447 1447 1446 1445 1445 1444 1443 1442 1441 1441 1440 1439 1439 1438 1437 1436 1435 1434 1434 1433 1432 1432 1431 1430 1429 1428 1428 1427 1426 1426 1425 1425 1424 1425 1425 1425 1425 1425 1426 1427 1428 1429 1431 1433 1434 1434 1434 1435 1435 1436 1437 1437 1438 1439 1440 1442 1443
1511 1509 1507 1506 1504 1502 1501 1500 1498 1497 1496 1494 1492 1492 1490 1489 1487 1486 1485 1483 1481 1480 1479 1477 1476 1474 1472 1470 1469 1468 1467 1465 1463 1462 1459 1457 1455 1454 1453 1452 1451 1450 1449 1448 1447 1447 1446 1445 1445 1444 1443 1442 1442 1441 1440 1440 1439 1438 1437 1436 1435 1434 1433 1433 1432 1432 1431 1430 1429 1429 1428 1427 1427 1426 1425 1424 1424 1423 1423 1423 1422 1423 1423 1424 1424 1425 1426 1427 1429 1431 1432 1432 1432 1433 1434 1435 1435 1435 1436 1437 1438 1440 1441
1510 1508 1507 1505 1503 1502 1500 1499 1497 1496 1495 1493 1492 1491 1490 1488 1487 1486 1484 1483 1481 1480 1478 1477 1475 1473 1471 1469 1467 1467 1466 1464 1463 1461 1459 1457 1455 1452 1451 1451 1449 1448 1447 1447 1446 1445 1444 1444 1443 1443 1442 1442 1441 1440 1439 1439 1438 1437 1436 1435 1434 1433 1432 1431 1431 1430 1430 1429 1428 1427 1427 1426 1425 1424 1424 1423 1422 1422 1422 1421 1421 1421 1421 1422 1422 1423 1423 1424 1426 1427 1428 1429 1429 1430 1432 1432 1432 1433 1433 1434 1436 1437 1438
1509 1507 1506 1504 1502 1501 1499 1498 1497 1495 1494 1492 1492 1490 1489 1488 1486 1485 1483 1482 1481 1479 1478 1476 1474 1473 1471 1469 1467 1466 1465 1464 1462 1461 1459 1458 1456 1453 1450 1448 1447 1447 1446 1445 1444 1443 1443 1442 1442 1442 1441 1440 1439 1439 1438 1438 1437 1436 1435 1434 1433 1432 1431 1430 1429 1429 1428 1427 1427 1426 1425 1425 1424 1423 1422 1422 1421 1421 1420 1420 1419 1419 1419 1420 1420 1421 1421 1422 1423 1424 1425 1426 1427 1427 1428 1428 1429 1429 1430 1431 1432 1434 1435
1509 1507 1505 1503 1502 1500 1499 1497 1496 1494 1493 1492 1491 1490 1488 1487 1485 1484 1482 1481 1480 1479 1477 1475 1473 1472 1471 1469 1467 1466 1465 1463 1462 1461 1460 1457 1456 1455 1452 1448 1446 1445 1445 1444 1443 1442 1442 1441 1441 1441 1440 1439 1438 1437 1437 1436 1435 1434 1434 1433 1432 1431 1430 1429 1428 1427 1427 1426 1425 1425 1424 1423 1423 1422 1421 1421 1420 1419 1419 1418 1418 1418 1418 1418 1418 1419 1419 1420 1421 1422 1422 1424 1424 1425 1426 1426 1426 1427 1427 1429 1430 1431 1432
1508 1507 1505 1503 1501 1500 1498 1497 1495 1494 1492 1491 1490 1489 1487 1486 1484 1483 1482 1481 1479 1478 1477 1475 1473 1471 1470 1468 1467 1466 1465 1463 1462 1462 1461 1458 1456 1454 1453 1451 1448 1446 1443 1442 1441 1440 1441 1441 1440 1440 1438 1437 1437 1436 1435 1435 1434 1433 1433 1432 1431 1430 1428 1428 1427 1426 1425 1424 1424 1423 1422 1422 1421 1421 1420 1419 1419 1418 1418 1417 1417 1417 1416 1416 1417 1417 1418 1418 1419 1419 1420 1421 1422 1423 1424 1424 1425 1425 1426 1427 1427 1428 1430
1508 1507 1505 1502 1501 1499 1497 1496 1494 1493 1492 1491 1489 1488 1487 1485 1484 1482 1481 1480 1479 1477 1476 1475 1473 1471 1469 1468 1467 1465 1464 1463 1462 1461 1460 1458 1456 1454 1452 1452 1450 1447 1445 1443 1440 1438 1439 1440 1439 1437 1437 1436 1435 1434 1434 1433 1433 1432 1432 1431 1429 1428 1428 1427 1426 1425 1424 1423 1422 1422 1421 1420 1420 1419 1419 1418 1417 1417 1417 1416 1416 1415 1415 1415 1415 1416 1416 1417 1417 1417 1418 1419 1420 1422 1422 1422 1423 1423 1424 1424 1425 1426 1427
1507 1506 1504 1502 1500 1498 1497 1495 1494 1492 1491 1490 1489 1487 1486 1484 1483 1482 1481 1479 1478 1477 1475 1474 1472 1471 1469 1467 1466 1464 1463 1462 1462 1461 1460 1459 1457 1455 1453 1452 1450 1448 1447 1445 1442 1439 1437 1438 1437 1435 1434 1434 1434 1433 1433 1432 1432 1431 1430 1429 1428 1427 1427 1426 1425 1424 1423 1422 1421 1420 1419 1419 1418 1418 1417 1417 1416 1416 1415 1415 1415 1414 1414 1414 1414 1414 1415 1415 1416 1416 1416 1417 1418 1419 1420 1420 1420 1421 1421 1422 1423 1424 1425
1506 1505 1503 1501 1499 1497 1496 1495 1493 1492 1491 1489 1488 1487 1485 1483 1482 1481 1480 1479 1478 1476 1475 1473 1472 1471 1469 1467 1465 1463 1462 1461 1461 1460 1459 1458 1457 1457 1455 1452 1450 1448 1446 1445 1443 1441 1438 1437 1436 1434 1432 1433 1433 1432 1432 1431 1430 1429 1428 1428 1427 1426 1425 1424 1423 1422 1422 1421 1420 1419 1418 1417 1417 1416 1416 1415 1415 1414 1414 1414 1413 1413 1412 1412 1413 1413 1413 1414 1414 1414 1414 1415 1416 1417 1417 1417 1418 1419 1420 1421 1422 1423 1424
1506 1504 1502 1500 1499 1497 1496 1494 1493 1491 1490 1488 1487 1486 1484 1483 1482 1480 1479 1478 1477 1476 1474 1472 1471 1470 1469 1467 1465 1462 1461 1460 1459 1459 1458 1457 1457 1456 1456 1454 1452 1450 1447 1445 1443 1442 1440 1439 1436 1433 1431 1432 1432 1431 1430 1429 1429 1428 1427 1426 1425 1425 1424 1423 1422 1422 1421 1420 1419 1418 1417 1416 1415 1415 1414 1414 1413 1413 1413 1412 1412 1412 1411 1411 1412 1412 1412 1412 1412 1412 1413 1413 1414 1414 1415 1415 1416 1417 1418 1419 1421 1422 1423
1505 1503 1501 1500 1498 1497 1496 1494 1492 1490 1489 1487 1486 1485 1483 1482 1481 1479 1478 1477 1476 1474 1473 1472 1470 1469 1467 1466 1465 1462 1461 1459 1458 1457 1457 1456 1455 1455 1454 1454 1453 1452 1450 1448 1445 1442 1440 1440 1439 1435 1430 1429 1430 1431 1429 1428 1427 1427 1426 1425 1424 1423 1422 1422 1421 1420 1420 1419 1418 1417 1416 1415 1414 1414 1413 1412 1412 1412 1412 1411 1411 1410 1410 1410 1410 1411 1411 1411 1411 1411 1411 1411 1412 1412 1413 1413 1414 1415 1417 1418 1420 1421 1422
1504 1502 1501 1499 1498 1496 1495 1493 1491 1489 1488 1487 1485 1484 1482 1481 1480 1478 1477 1476 1474 1473 1472 1470 1469 1467 1466 1465 1464 1462 1460 1459 1457 1456 1455 1455 1454 1453 1453 1452 1452 1451 1450 1449 1447 1444 1442 1440 1439 1437 1432 1428 1427 1428 1429 1427 1426 1425 1424 1424 1423 1422 1422 1421 1420 1419 1418 1418 1417 1416 1415 1414 1413 1413 1412 1411 1411 1411 1410 1410 1409 1409 1409 1409 1409 1409 1409 1409 1409 1409 1409 1409 1410 1411 1411 1411 1412 1413 1415 1417 1418 1419 1419
1504 1502 1500 1499 1497 1496 1494 1492 1491 1489 1487 1486 1484 1483 1481 1480 1479 1477 1476 1475 1473 1472 1471 1469 1468 1467 1465 1464 1463 1462 1460 1458 1457 1455 1454 1453 1453 1452 1452 1452 1451 1450 1449 1448 1447 1445 1444 1442 1440 1437 1435 1430 1426 1425 1427 1427 1426 1424 1423 1422 1422 1422 1421 1420 1419 1418 1417 1417 1416 1415 1414 1413 1412 1412 1411 1410 1410 1409 1409 1409 1408 1407 1407 1407 1408 1408 1408 1408 1408 1408 1408 1408 1409 1410 1410 1409 1410 1412 1413 1415 1417 1417 1417
1503 1501 1499 1498 1497 1495 1493 1491 1490 1488 1486 1485 1483 1482 1481 1479 1478 1477 1475 1474 1472 1471 1470 1468 1467 1466 1464 1463 1462 1461 1459 1457 1456 1455 1454 1453 1452 1452 1452 1451 1450 1448 1447 1447 1446 1445 1444 1442 1441 1439 1437 1433 1429 1425 1423 1424 1425 1424 1423 1422 1421 1421 1420 1419 1418 1417 1416 1416 1415 1414 1413 1412 1411 1411 1410 1409 1409 1408 1408 1407 1407 1406 1406 1406 1406 1407 1407 1407 1407 1407 1407 1407 1408 1409 1408 1407 1408 1409 1411 1413 1415 1415 1415
1502 1500 1499 1497 1496 1494 1492 1491 1489 1487 1486 1484 1483 1481 1480 1478 1477 1476 1474 1472 1471 1470 1469 1467 1466 1465 1463 1462 1461 1460 1458 1457 1455 1455 1454 1453 1452 1451 1450 1449 1448 1447 1446 1445 1444 1443 1442 1441 1440 1439 1437 1435 1432 1428 1424 1422 1422 1422 1422 1422 1421 1420 1419 1418 1417 1417 1416 1415 1414 1413 1412 1411 1410 1409 1409 1408 1407 1407 1407 1406 1406 1405 1405 1405 1405 1405 1406 1405 1405 1405 1406 1406 1406 1407 1407 1406 1406 1407 1409 1411 1412 1413 1412